Theta_e
310 306 308 308 310 310 314 318 318 316 317 317 318 319 318 318 317 316 315 314 314 315 314 318 345 345 346 346 345 343 342 340 338 340 348 352 347 352 348 348 349 351 348 347
311 312 310 308 313 311 311 315 319 319 317 316 318 319 318 317 319 318 315 315 314 315 315 315 333 340 341 342 340 340 340 337 337 339 350 352 351 351 350 352 351 352 349 351
313 310 311 313 312 313 314 317 319 321 320 319 316 318 318 317 317 318 316 316 314 315 315 315 315 338 337 338 338 337 338 338 339 344 341 350 348 350 347 348 348 353 352 351
312 310 310 312 314 311 311 312 316 320 321 322 317 318 317 318 318 317 317 314 315 315 316 314 316 344 342 337 337 339 338 339 339 336 339 343 346 348 348 349 349 349 349 350
312 311 311 313 314 315 315 310 314 316 317 318 319 319 317 317 318 317 317 315 314 314 314 313 315 346 354 348 340 337 340 338 335 337 343 347 350 349 348 347 350 350 350 349
316 313 312 314 315 316 315 316 312 311 311 318 318 319 319 318 319 319 317 315 315 314 314 313 319 350 352 353 352 351 350 352 351 351 349 349 349 349 349 348 349 348 346 346
316 315 312 313 316 316 316 316 315 313 315 318 316 319 318 319 319 320 318 317 316 314 314 315 345 348 348 346 346 352 352 352 351 351 352 349 349 349 348 347 346 345 344 343
321 320 317 314 315 316 316 315 317 324 323 317 317 321 320 319 319 319 319 318 316 314 313 318 347 348 345 338 339 344 349 351 350 351 349 348 347 346 346 347 345 343 342 339
319 320 317 317 315 315 319 319 316 319 322 319 317 320 320 319 321 318 317 317 316 315 314 328 345 348 343 343 347 347 347 348 348 347 346 344 343 343 343 344 342 338 335 333
315 316 317 318 319 316 319 316 320 319 324 324 319 319 320 319 333 339 328 317 315 314 319 330 350 349 349 349 347 346 344 340 342 342 340 336 334 334 334 335 331 329 327 325
313 316 317 319 320 320 321 319 319 318 322 321 321 319 327 333 335 339 334 324 320 330 344 348 348 348 346 343 340 338 336 335 332 332 329 331 331 327 327 324 321 320 320 319
313 312 314 314 317 317 319 319 316 317 319 322 318 317 330 332 341 339 339 341 344 345 346 346 344 343 339 336 332 329 327 325 325 325 325 322 326 323 321 318 315 314 312 313
314 315 314 320 318 318 321 320 318 315 321 325 324 330 333 340 342 340 343 344 344 343 342 341 339 335 330 327 325 323 322 321 320 322 319 315 314 313 314 314 315 314 314 314
316 314 313 316 319 317 321 322 319 314 321 328 330 333 335 341 343 340 342 341 342 341 337 334 330 327 325 324 322 320 319 318 316 315 315 315 314 315 314 314 313 313 313 312
313 316 314 313 313 314 316 320 321 317 322 328 329 331 333 333 341 341 340 337 335 332 329 327 325 323 321 320 319 317 316 315 314 313 313 313 313 313 312 312 310 310 309 309
306 314 317 316 315 316 319 320 322 319 323 323 326 328 330 330 334 336 333 331 329 327 325 322 320 319 318 317 316 315 313 312 312 312 311 311 311 310 309 307 306 306 306 306
308 312 317 323 319 318 322 322 322 321 321 323 326 327 329 332 333 331 327 323 321 319 318 317 316 315 314 313 311 311 311 311 311 310 309 308 308 306 306 305 305 304 304 304
310 311 316 324 324 326 323 320 323 326 327 325 324 327 325 331 325 322 320 318 316 314 313 312 311 310 309 310 310 310 310 309 308 308 307 306 305 305 305 305 304 304 304 304
310 313 320 324 327 326 325 326 326 326 329 327 325 322 320 318 316 316 314 313 312 311 311 310 309 309 309 309 309 308 308 307 306 305 305 304 303 303 303 302 303 302 303 304
315 314 318 324 328 331 327 326 324 322 327 323 320 320 320 320 316 314 312 311 311 311 310 309 309 308 308 308 307 306 306 305 305 304 304 303 303 302 301 301 301 300 300 301
318 319 322 325 327 327 323 325 324 326 327 321 320 319 317 315 313 310 309 309 309 309 308 307 307 306 306 306 306 305 304 303 303 302 302 301 300 299 298 299 298 297 298 299
314 317 321 323 324 330 324 326 329 322 317 316 314 312 312 310 309 309 308 308 307 307 307 306 305 305 305 305 304 303 303 302 301 300 299 297 297 296 296 296 296 296 296 296
316 312 313 315 320 315 318 319 315 314 314 312 312 310 309 309 308 307 307 306 305 305 305 304 303 303 303 303 304 303 303 302 299 298 297 296 295 294 295 296 295 294 293 293
307 306 312 316 315 313 312 311 310 309 310 309 309 309 308 307 306 305 305 304 304 304 304 303 302 302 302 302 303 303 302 301 299 297 295 294 294 293 293 292 291 291 290 289
305 305 309 314 314 310 308 306 305 305 306 306 306 306 306 306 305 304 304 303 303 303 303 302 302 301 300 301 301 301 301 301 299 297 295 294 293 292 291 291 290 291 291 291
303 305 309 309 310 309 308 305 305 305 306 305 306 306 306 305 304 303 303 302 302 301 301 301 300 299 299 300 300 300 300 300 300 297 295 294 293 291 291 291 291 291 292 292
Wind_Speed
3 4 11 10 11 16 13 14 10 8 7 13 18 21 13 13 6 9 9 9 9 9 8 15 31 34 33 35 37 39 37 36 37 30 26 30 31 27 28 26 31 31 33 27
1 9 10 11 15 18 17 17 16 14 10 9 16 22 13 10 16 12 10 10 10 7 8 8 25 29 33 38 38 39 37 47 42 37 33 24 22 19 17 19 21 24 28 25
11 8 9 8 14 14 16 16 13 14 12 11 8 14 7 11 10 14 10 10 9 12 11 9 11 29 33 33 37 40 44 42 40 36 29 24 18 17 15 15 21 22 20 14
11 17 15 13 13 17 15 13 16 12 12 7 6 10 9 18 15 13 17 11 12 12 7 8 10 18 30 34 39 43 37 35 38 36 34 29 27 20 22 32 21 18 13 12
6 10 13 11 17 11 13 14 12 14 12 4 14 3 8 9 16 15 17 13 12 11 11 11 10 18 31 35 39 46 39 39 42 40 30 33 34 36 32 26 22 16 15 15
10 5 6 8 7 4 11 8 14 10 3 8 16 7 5 6 21 25 12 12 13 10 9 10 12 23 26 29 33 39 38 38 38 38 35 32 34 31 24 21 17 18 17 12
3 14 10 7 6 3 6 1 4 5 6 6 8 7 10 10 10 14 17 12 10 10 10 9 14 13 25 28 32 38 36 28 23 21 23 21 21 19 12 18 18 15 15 12
3 4 2 10 7 8 10 9 4 5 7 8 9 9 8 20 11 12 19 17 13 12 10 12 16 16 24 25 29 29 27 22 15 16 12 7 11 13 22 21 23 19 16 15
4 4 3 9 12 10 5 9 10 2 3 3 3 5 4 8 4 8 11 10 11 10 11 12 15 18 24 26 25 27 25 25 21 22 20 16 19 26 30 29 25 21 19 17
3 6 5 7 3 12 5 4 7 4 4 5 6 13 6 5 5 8 8 10 10 9 11 12 16 19 27 27 27 31 34 35 34 33 30 29 31 34 33 31 28 24 20 16
3 3 3 2 4 11 4 3 2 5 4 4 8 5 3 3 5 7 4 9 10 14 17 19 16 24 29 30 32 32 36 36 35 34 33 34 33 30 29 27 23 20 17 14
3 2 5 9 4 3 2 6 8 4 6 1 3 3 6 8 3 3 11 17 19 24 22 21 20 24 28 30 31 31 32 32 35 37 37 34 31 27 26 23 20 18 20 18
3 2 5 1 2 2 2 8 6 4 1 4 2 3 7 6 9 4 21 18 23 25 24 19 18 18 25 30 30 31 31 33 34 35 35 33 33 31 28 24 21 20 19 18
11 4 7 4 1 1 5 5 10 6 3 3 2 3 6 6 11 15 19 18 22 23 22 20 19 19 28 31 29 29 30 31 33 34 35 34 32 31 28 26 23 21 19 19
1 5 7 14 15 12 14 11 5 10 9 5 4 3 2 3 9 15 18 19 21 23 22 22 21 19 26 31 27 31 30 30 32 33 35 34 32 29 25 23 21 19 18 18
1 3 3 9 16 13 10 12 4 8 12 7 4 1 1 5 4 14 20 23 23 23 23 22 23 22 22 28 29 29 29 27 32 35 34 32 29 26 24 22 19 17 17 17
3 2 2 3 11 10 5 11 12 6 13 10 5 4 4 6 11 14 21 23 25 25 23 22 21 21 26 27 29 29 29 30 30 31 30 30 27 26 24 22 21 21 19 16
3 2 2 3 5 4 4 13 13 16 11 13 6 1 7 8 17 17 16 27 25 24 24 21 19 28 30 31 32 33 31 30 29 30 30 27 26 24 21 20 19 17 16 16
6 1 3 3 4 5 13 13 11 21 5 3 11 14 16 21 28 19 17 21 22 24 21 25 29 30 31 31 32 33 30 28 28 27 27 27 24 23 22 21 18 14 15 15
1 3 2 3 3 3 0 8 16 11 6 13 22 20 21 24 17 9 16 23 20 27 30 31 31 31 31 28 33 32 28 28 25 27 28 25 21 20 19 16 15 12 12 15
5 3 3 4 4 4 4 4 10 5 7 15 15 9 13 18 14 15 17 20 26 29 31 33 32 29 26 30 33 29 28 26 28 29 26 23 20 19 16 16 14 13 12 12
5 5 4 4 4 6 9 7 2 11 18 19 18 18 22 23 21 20 19 20 20 23 28 29 30 27 26 30 31 28 27 27 27 26 25 23 20 17 16 17 17 16 16 17
3 4 4 5 4 7 8 9 15 17 22 23 18 16 26 22 20 19 18 18 18 24 26 25 28 28 26 27 26 27 25 27 27 27 24 23 23 23 20 19 19 21 21 23
5 5 3 3 11 13 16 19 19 20 21 19 20 17 20 23 20 20 17 15 15 22 23 24 26 24 22 25 26 26 27 26 26 27 26 24 23 22 22 23 25 28 28 24
3 9 8 4 7 14 14 16 21 22 22 21 19 19 18 21 19 19 16 16 20 22 22 22 23 22 22 25 24 22 23 23 24 24 23 23 23 23 23 23 23 24 23 25
6 4 3 3 6 12 9 12 19 23 20 20 24 19 15 15 18 17 16 21 21 21 21 22 22 23 23 24 23 22 22 21 24 22 19 18 19 19 21 21 19 18 19 19
Wind_Direction
135 190 233 237 242 243 253 267 258 253 221 212 230 240 246 226 221 209 217 234 242 222 200 137 149 154 151 157 162 174 177 193 183 194 205 205 203 218 215 218 221 223 215 212
163 215 222 239 249 232 239 254 267 274 263 224 234 237 229 218 227 220 203 222 225 227 203 135 147 153 159 166 172 176 182 176 191 210 198 196 195 191 200 213 216 206 200 205
227 232 218 236 256 257 233 238 243 254 272 291 236 249 223 235 232 214 220 212 208 208 217 138 154 162 165 167 174 178 188 194 194 205 207 196 196 204 179 222 206 174 176 198
244 242 236 229 238 239 243 245 258 262 246 236 178 247 211 219 209 211 217 210 214 219 194 157 179 153 163 173 176 180 184 191 196 204 189 184 204 201 197 203 197 206 180 197
240 201 202 221 229 238 260 227 232 255 263 261 267 275 246 194 214 217 218 209 202 205 177 166 190 150 166 163 173 179 182 189 207 212 202 201 204 211 202 203 185 165 156 177
252 271 188 183 181 247 237 300 235 244 234 235 236 200 268 192 201 218 214 206 191 188 176 183 173 147 152 165 162 168 183 187 198 197 201 210 210 208 204 194 181 142 138 146
268 227 213 191 153 188 216 111 185 227 200 226 191 211 244 265 222 202 204 200 193 172 169 161 152 151 146 155 160 159 171 174 189 200 197 195 214 203 196 173 154 153 129 119
331 280 213 194 194 165 216 188 172 202 157 219 164 205 234 232 247 225 194 190 188 173 169 160 159 159 151 150 150 156 163 157 175 181 159 118 161 175 183 145 131 122 104 90
309 290 249 253 214 185 181 191 201 317 187 93 199 227 289 253 254 219 191 166 186 173 153 150 157 148 142 142 144 139 126 122 124 122 126 115 116 122 126 122 115 110 105 100
284 287 217 286 184 193 185 152 157 255 195 161 184 214 224 204 211 270 191 183 180 153 134 132 132 133 128 124 125 116 115 109 115 119 121 114 108 108 109 113 110 109 107 109
300 266 318 317 228 171 150 134 170 200 257 156 167 240 320 319 247 219 257 189 135 115 118 123 123 122 121 113 110 110 109 109 109 114 112 115 109 104 102 101 100 101 99 88
196 239 264 240 275 19 144 161 191 140 211 285 175 251 313 253 152 205 103 119 119 117 119 122 114 114 110 104 104 102 102 104 109 114 113 106 109 105 100 94 88 85 82 80
161 218 299 213 66 134 169 182 165 137 114 176 123 284 340 100 101 145 116 115 115 115 112 110 113 109 107 99 99 100 102 103 106 110 108 105 102 100 94 90 85 82 83 83
227 198 210 229 48 310 279 241 161 153 121 151 62 26 357 99 113 128 112 116 114 112 110 109 105 104 103 103 103 105 100 102 105 105 102 98 96 94 95 92 86 82 77 76
214 243 232 251 255 257 253 259 176 181 144 135 157 53 319 334 142 132 116 109 105 105 109 109 107 104 102 99 103 99 101 104 106 101 98 99 98 96 91 85 79 77 76 75
201 267 256 269 240 225 227 227 188 178 136 110 146 223 334 235 199 118 118 113 107 106 104 102 102 100 96 102 104 103 101 101 102 99 97 100 96 91 88 84 79 75 73 66
198 244 287 307 147 173 231 228 189 184 155 141 157 173 139 218 139 127 115 107 106 105 103 98 98 98 101 103 103 101 100 102 96 95 96 97 97 94 89 84 77 73 71 71
189 202 239 284 140 145 250 138 129 110 107 101 77 245 204 187 110 107 102 109 106 105 102 99 98 96 96 99 98 99 100 97 95 92 96 99 96 91 86 84 79 77 77 72
169 191 299 335 59 122 97 124 122 123 50 106 99 94 95 123 94 74 94 94 101 102 99 98 98 98 98 97 98 97 95 95 93 93 95 94 90 84 82 77 73 72 79 85
34 247 288 320 91 88 249 130 133 128 109 143 133 142 143 116 95 100 99 98 97 97 100 99 95 94 94 97 99 95 94 93 92 94 94 91 87 86 84 86 84 78 89 87
341 360 359 336 59 78 351 223 332 81 148 121 127 110 97 98 108 115 102 92 98 97 98 97 93 92 96 101 101 95 94 92 97 99 97 93 92 90 89 93 87 86 89 89
352 335 353 345 43 74 0 288 355 128 102 105 99 115 104 101 102 102 96 94 89 93 91 93 94 91 95 101 100 96 94 101 102 98 94 91 88 87 91 93 87 85 83 76
29 13 305 14 19 354 23 82 85 103 112 114 108 115 113 107 101 97 93 91 90 91 94 94 95 93 92 97 99 98 102 105 102 97 95 93 89 83 88 90 84 77 72 68
333 352 352 331 31 45 70 80 86 94 100 103 112 111 108 109 106 100 97 95 95 95 95 98 96 94 91 96 97 102 112 111 102 96 94 92 91 88 87 87 85 81 75 65
327 315 330 43 60 63 53 85 100 94 95 95 88 91 98 106 103 106 104 100 100 100 101 100 101 104 102 103 99 106 114 117 110 101 97 93 90 90 92 87 80 77 72 66
343 327 1 0 358 89 83 93 101 99 99 100 102 91 86 90 103 103 100 103 105 106 108 105 103 102 104 110 107 105 112 116 120 107 101 102 101 97 91 89 85 77 75 73